Zurück zum Katalog

STARLINK-5610

AktivKommunikationVLEO
NORAD 57244·PAYLOAD·🇺🇸 United States

Gestartet Jul 7, 2023 von Vandenberg Space Force Base

Loading…

Nächste Überflüge (nächste 24 Stunden)

TLE

AktuellSource: CelesTrak SupGP

Epoche: Sep 14, 2026, 21:51 UTC

1 57244C 23094AC  26257.91090278  .00019611  00000+0  71007-3 0  2570
2 57244  43.0040  30.7843 0002226 275.5978 118.8860 15.27578078    18

Verfolge STARLINK-5610 in Echtzeit mit AllMySat

Download on the App Store